time, beta470, beta532, beta650
yyyy/mm/dd HH:MM:SS.fff, counts, counts, counts
2023/07/02 09:02:20.383, 98, 106, 71
2023/07/02 09:02:21.502, 98, 99, 70
2023/07/02 09:02:22.638, 97, 101, 67
2023/07/02 09:02:23.774, 101, 106, 66
2023/07/02 09:02:24.894, 96, 102, 63
2023/07/02 09:02:26.030, 94, 99, 70
2023/07/02 09:02:27.150, 93, 100, 68
2023/07/02 09:02:28.286, 96, 108, 66
2023/07/02 09:02:29.406, 96, 106, 67
2023/07/02 09:02:30.542, 92, 103, 66
2023/07/02 09:02:31.662, 96, 104, 71
2023/07/02 09:02:32.798, 95, 107, 67
2023/07/02 09:02:33.918, 93, 106, 66
2023/07/02 09:02:35.053, 94, 101, 66
2023/07/02 09:02:36.173, 97, 101, 66
2023/07/02 09:02:37.310, 97, 105, 71
2023/07/02 09:02:38.429, 95, 111, 67
2023/07/02 09:02:39.566, 96, 121, 69
2023/07/02 09:02:40.685, 99, 101, 66
2023/07/02 09:02:41.821, 94, 101, 69
2023/07/02 09:02:42.941, 105, 105, 67
2023/07/02 09:02:44.077, 97, 110, 68
2023/07/02 09:02:45.213, 97, 105, 66
2023/07/02 09:02:46.333, 103, 101, 67
2023/07/02 09:02:47.469, 100, 110, 72
2023/07/02 09:02:48.589, 95, 104, 65
2023/07/02 09:02:49.725, 94, 97, 68
2023/07/02 09:02:50.844, 92, 104, 72
2023/07/02 09:02:51.981, 100, 100, 64
2023/07/02 09:02:53.100, 94, 103, 65
2023/07/02 09:02:54.236, 93, 101, 74
2023/07/02 09:02:55.373, 97, 103, 71
2023/07/02 09:02:56.492, 97, 103, 67
2023/07/02 09:02:57.628, 95, 100, 64
2023/07/02 09:02:58.748, 93, 98, 70
2023/07/02 09:02:59.883, 93, 97, 70
2023/07/02 09:03:01.004, 92, 101, 68
2023/07/02 09:03:02.140, 92, 109, 102
2023/07/02 09:03:03.260, 91, 99, 68
2023/07/02 09:03:04.396, 94, 101, 61
2023/07/02 09:03:05.516, 94, 104, 65
2023/07/02 09:03:06.652, 94, 100, 67
2023/07/02 09:03:07.772, 96, 97, 68
2023/07/02 09:03:08.908, 95, 100, 65
2023/07/02 09:03:10.028, 91, 102, 65
2023/07/02 09:03:11.164, 92, 100, 68
2023/07/02 09:03:12.283, 96, 100, 66
2023/07/02 09:03:13.419, 96, 97, 70
2023/07/02 09:03:14.539, 91, 101, 65
2023/07/02 09:03:15.675, 93, 109, 68
2023/07/02 09:03:16.795, 94, 95, 64
2023/07/02 09:03:17.931, 94, 99, 62
2023/07/02 09:03:19.051, 96, 106, 68
2023/07/02 09:03:20.187, 93, 96, 66
2023/07/02 09:03:21.307, 91, 98, 63
2023/07/02 09:03:22.443, 91, 99, 65
2023/07/02 09:03:23.563, 91, 98, 67
2023/07/02 09:03:24.699, 95, 101, 67
2023/07/02 09:03:25.818, 93, 103, 66
2023/07/02 09:03:26.954, 95, 100, 68
2023/07/02 09:03:28.091, 93, 103, 70
2023/07/02 09:03:29.210, 92, 100, 67
2023/07/02 09:03:30.346, 93, 98, 64
2023/07/02 09:03:31.466, 92, 97, 64
2023/07/02 09:03:32.585, 93, 97, 67
2023/07/02 09:03:33.722, 94, 96, 65
2023/07/02 09:03:34.842, 94, 94, 66
2023/07/02 09:03:35.978, 88, 97, 65
2023/07/02 09:03:37.098, 94, 97, 66
2023/07/02 09:03:38.234, 94, 99, 65
2023/07/02 09:03:39.354, 90, 98, 64
2023/07/02 09:03:40.490, 90, 96, 67
2023/07/02 09:03:41.610, 93, 104, 61
2023/07/02 09:03:42.746, 92, 97, 62
2023/07/02 09:03:43.866, 95, 99, 63
2023/07/02 09:03:45.002, 92, 94, 66
2023/07/02 09:03:46.121, 91, 97, 65
2023/07/02 09:03:47.257, 89, 97, 60
2023/07/02 09:03:48.377, 92, 97, 62
2023/07/02 09:03:49.513, 90, 96, 65
2023/07/02 09:03:50.633, 94, 97, 65
2023/07/02 09:03:51.769, 95, 99, 62
2023/07/02 09:03:52.889, 156, 97, 62
2023/07/02 09:03:54.025, 141, 95, 62
2023/07/02 09:03:55.145, 91, 96, 66
2023/07/02 09:03:56.281, 92, 97, 65
2023/07/02 09:03:57.401, 92, 95, 63
2023/07/02 09:03:58.537, 90, 93, 67
2023/07/02 09:03:59.657, 90, 94, 62
2023/07/02 09:04:00.793, 93, 100, 66
2023/07/02 09:04:01.912, 92, 98, 64
2023/07/02 09:04:03.049, 93, 97, 68
2023/07/02 09:04:04.168, 91, 96, 65
2023/07/02 09:04:05.304, 91, 103, 66
2023/07/02 09:04:06.424, 95, 94, 66
2023/07/02 09:04:07.560, 90, 112, 66
2023/07/02 09:04:08.680, 93, 102, 61
2023/07/02 09:04:09.816, 91, 102, 63
2023/07/02 09:04:10.936, 91, 104, 65
2023/07/02 09:04:12.072, 93, 99, 63
2023/07/02 09:04:13.192, 90, 95, 65
2023/07/02 09:04:14.328, 94, 91, 66
2023/07/02 09:04:15.448, 89, 94, 67
2023/07/02 09:04:16.584, 90, 96, 65
2023/07/02 09:04:17.704, 91, 96, 61
2023/07/02 09:04:18.840, 92, 96, 66
2023/07/02 09:04:19.960, 91, 96, 65
2023/07/02 09:04:21.094, 91, 93, 63
2023/07/02 09:04:22.215, 88, 96, 61
2023/07/02 09:04:23.351, 91, 94, 64
2023/07/02 09:04:24.471, 90, 98, 64
2023/07/02 09:04:25.607, 97, 102, 68
2023/07/02 09:04:26.727, 106, 96, 68
2023/07/02 09:04:27.863, 92, 97, 65
2023/07/02 09:04:28.983, 94, 95, 67
2023/07/02 09:04:30.119, 104, 100, 65
2023/07/02 09:04:31.239, 92, 99, 64
2023/07/02 09:04:32.375, 86, 99, 61
2023/07/02 09:04:33.495, 90, 109, 69
2023/07/02 09:04:34.631, 90, 95, 67
2023/07/02 09:04:35.750, 87, 95, 61
2023/07/02 09:04:36.886, 90, 101, 72
2023/07/02 09:04:38.006, 92, 98, 66
2023/07/02 09:04:39.142, 89, 92, 65
2023/07/02 09:04:40.262, 91, 93, 66
2023/07/02 09:04:41.398, 91, 95, 61
2023/07/02 09:04:42.518, 88, 93, 64
2023/07/02 09:04:43.654, 88, 94, 63
2023/07/02 09:04:44.774, 89, 100, 64
2023/07/02 09:04:45.910, 92, 94, 65
2023/07/02 09:04:47.030, 95, 95, 66
2023/07/02 09:04:48.166, 89, 91, 73
2023/07/02 09:04:49.285, 90, 94, 90
2023/07/02 09:04:50.422, 86, 97, 66
2023/07/02 09:04:51.542, 90, 95, 59
2023/07/02 09:04:52.678, 87, 113, 61
2023/07/02 09:04:53.798, 87, 96, 65
2023/07/02 09:04:54.933, 90, 91, 63
2023/07/02 09:04:56.053, 90, 102, 67
2023/07/02 09:04:57.189, 87, 102, 63
2023/07/02 09:04:58.309, 90, 94, 63
2023/07/02 09:04:59.445, 88, 96, 66
2023/07/02 09:05:00.564, 90, 94, 67
2023/07/02 09:05:01.701, 90, 102, 68
2023/07/02 09:05:02.821, 90, 122, 63
2023/07/02 09:05:03.957, 90, 103, 65
2023/07/02 09:05:05.077, 90, 92, 67
2023/07/02 09:05:06.213, 90, 95, 64
2023/07/02 09:05:07.333, 88, 101, 64
2023/07/02 09:05:08.468, 87, 90, 62
2023/07/02 09:05:09.589, 86, 93, 62
2023/07/02 09:05:10.724, 88, 91, 64
2023/07/02 09:05:11.845, 87, 100, 60
2023/07/02 09:05:12.980, 88, 91, 61
2023/07/02 09:05:14.100, 91, 96, 69
2023/07/02 09:05:15.236, 92, 90, 65
2023/07/02 09:05:16.356, 88, 92, 63
2023/07/02 09:05:17.492, 88, 95, 65
2023/07/02 09:05:18.612, 97, 91, 60
2023/07/02 09:05:19.748, 86, 91, 63
2023/07/02 09:05:20.868, 89, 93, 64
2023/07/02 09:05:22.004, 88, 94, 66
2023/07/02 09:05:23.123, 90, 94, 59
2023/07/02 09:05:24.260, 88, 90, 60
2023/07/02 09:05:25.380, 86, 90, 66
2023/07/02 09:05:26.500, 90, 91, 65
2023/07/02 09:05:27.635, 87, 91, 64
2023/07/02 09:05:28.756, 88, 91, 64
2023/07/02 09:05:29.891, 91, 91, 62
2023/07/02 09:05:31.011, 89, 95, 66
2023/07/02 09:05:32.147, 90, 89, 62
2023/07/02 09:05:33.267, 86, 92, 60
2023/07/02 09:05:34.403, 98, 92, 64
2023/07/02 09:05:35.523, 87, 95, 62
2023/07/02 09:05:36.659, 85, 88, 66
2023/07/02 09:05:37.779, 88, 89, 62
2023/07/02 09:05:38.914, 88, 90, 67
2023/07/02 09:05:40.035, 89, 90, 67
2023/07/02 09:05:41.170, 88, 91, 60
2023/07/02 09:05:42.291, 86, 92, 58
2023/07/02 09:05:43.427, 89, 92, 57
2023/07/02 09:05:44.547, 90, 96, 61
2023/07/02 09:05:45.683, 89, 96, 62
2023/07/02 09:05:46.802, 85, 91, 70
2023/07/02 09:05:47.938, 87, 91, 63
2023/07/02 09:05:49.057, 85, 93, 64
2023/07/02 09:05:50.194, 89, 91, 62
2023/07/02 09:05:51.314, 87, 88, 70
2023/07/02 09:05:52.434, 86, 91, 62
2023/07/02 09:05:53.570, 89, 88, 64
2023/07/02 09:05:54.690, 90, 91, 68
2023/07/02 09:05:55.826, 90, 93, 67
2023/07/02 09:05:56.946, 89, 92, 64
2023/07/02 09:05:58.081, 89, 94, 63
2023/07/02 09:05:59.202, 88, 93, 69
2023/07/02 09:06:00.338, 90, 94, 62
2023/07/02 09:06:01.458, 86, 91, 61
2023/07/02 09:06:02.593, 86, 92, 65
2023/07/02 09:06:03.713, 88, 87, 65
2023/07/02 09:06:04.849, 91, 88, 63
2023/07/02 09:06:05.969, 86, 91, 65
2023/07/02 09:06:07.105, 90, 91, 66
2023/07/02 09:06:08.225, 89, 90, 60
2023/07/02 09:06:09.361, 99, 91, 64
2023/07/02 09:06:10.481, 89, 93, 65
2023/07/02 09:06:11.617, 88, 93, 61
2023/07/02 09:06:12.737, 89, 88, 64
2023/07/02 09:06:13.873, 86, 91, 65
2023/07/02 09:06:14.993, 84, 91, 67
2023/07/02 09:06:16.129, 90, 89, 58
2023/07/02 09:06:17.248, 89, 88, 67
2023/07/02 09:06:18.385, 88, 90, 59
2023/07/02 09:06:19.504, 87, 94, 66
2023/07/02 09:06:20.640, 88, 90, 66
2023/07/02 09:06:21.760, 89, 88, 62
2023/07/02 09:06:22.896, 87, 88, 60
2023/07/02 09:06:24.016, 88, 90, 62
2023/07/02 09:06:25.152, 88, 88, 62
2023/07/02 09:06:26.271, 89, 90, 59
2023/07/02 09:06:27.408, 85, 94, 64
2023/07/02 09:06:28.528, 85, 91, 63
2023/07/02 09:06:29.648, 89, 90, 64
2023/07/02 09:06:30.784, 87, 91, 62
2023/07/02 09:06:31.904, 86, 86, 59
2023/07/02 09:06:33.040, 86, 84, 67
2023/07/02 09:06:34.160, 87, 88, 58
2023/07/02 09:06:35.295, 86, 92, 58
2023/07/02 09:06:36.415, 88, 88, 62
2023/07/02 09:06:37.552, 88, 89, 62
2023/07/02 09:06:38.671, 86, 93, 61
2023/07/02 09:06:39.807, 90, 92, 60
2023/07/02 09:06:40.927, 91, 92, 58
2023/07/02 09:06:42.063, 88, 90, 65
2023/07/02 09:06:43.183, 83, 85, 67
2023/07/02 09:06:44.319, 87, 87, 62
2023/07/02 09:06:45.439, 87, 89, 62
2023/07/02 09:06:46.575, 87, 89, 59
2023/07/02 09:06:47.695, 88, 87, 62
2023/07/02 09:06:48.831, 86, 87, 58
2023/07/02 09:06:49.950, 88, 90, 66
2023/07/02 09:06:51.086, 84, 89, 63
2023/07/02 09:06:52.207, 86, 90, 61
2023/07/02 09:06:53.342, 85, 88, 63
2023/07/02 09:06:54.462, 84, 87, 62
2023/07/02 09:06:55.582, 85, 90, 63
2023/07/02 09:06:56.718, 87, 88, 60
2023/07/02 09:06:57.838, 86, 92, 65
2023/07/02 09:06:58.974, 91, 88, 61
2023/07/02 09:07:00.093, 86, 88, 61
2023/07/02 09:07:01.230, 83, 90, 63
2023/07/02 09:07:02.350, 88, 89, 66
2023/07/02 09:07:03.486, 88, 87, 66
2023/07/02 09:07:04.606, 85, 87, 61
2023/07/02 09:07:05.742, 90, 90, 63
2023/07/02 09:07:06.862, 85, 87, 62
2023/07/02 09:07:07.998, 88, 85, 63
2023/07/02 09:07:09.118, 85, 89, 60
2023/07/02 09:07:10.253, 86, 90, 65
2023/07/02 09:07:11.373, 85, 94, 62
2023/07/02 09:07:12.510, 87, 88, 60
2023/07/02 09:07:13.629, 87, 86, 61
2023/07/02 09:07:14.765, 86, 85, 62
2023/07/02 09:07:15.885, 85, 90, 65
2023/07/02 09:07:17.021, 85, 93, 61
2023/07/02 09:07:18.141, 89, 90, 64
2023/07/02 09:07:19.277, 83, 87, 57
2023/07/02 09:07:20.397, 88, 88, 60
2023/07/02 09:07:21.533, 87, 85, 59
2023/07/02 09:07:22.653, 83, 87, 57
2023/07/02 09:07:23.789, 84, 90, 64
2023/07/02 09:07:24.908, 86, 91, 64
2023/07/02 09:07:26.044, 85, 89, 58
2023/07/02 09:07:27.164, 84, 87, 60
2023/07/02 09:07:28.300, 84, 90, 62
2023/07/02 09:07:29.420, 88, 90, 63
2023/07/02 09:07:30.540, 88, 89, 62
2023/07/02 09:07:31.676, 84, 87, 63
2023/07/02 09:07:32.796, 90, 88, 57
2023/07/02 09:07:33.932, 91, 85, 66
2023/07/02 09:07:35.052, 84, 84, 66
2023/07/02 09:07:36.188, 86, 89, 60
2023/07/02 09:07:37.308, 85, 89, 63
2023/07/02 09:07:38.443, 85, 90, 63
2023/07/02 09:07:39.564, 86, 90, 59
2023/07/02 09:07:40.700, 87, 87, 65
2023/07/02 09:07:41.819, 86, 92, 64
2023/07/02 09:07:42.955, 89, 85, 56
2023/07/02 09:07:44.076, 84, 90, 60
2023/07/02 09:07:45.212, 87, 94, 65
2023/07/02 09:07:46.331, 91, 89, 61
2023/07/02 09:07:47.467, 83, 86, 62
2023/07/02 09:07:48.587, 86, 96, 64
2023/07/02 09:07:49.723, 89, 87, 63
2023/07/02 09:07:50.843, 88, 86, 66
2023/07/02 09:07:51.979, 85, 89, 64
2023/07/02 09:07:53.099, 87, 88, 62
2023/07/02 09:07:54.235, 86, 86, 58
2023/07/02 09:07:55.355, 83, 86, 65
2023/07/02 09:07:56.475, 82, 89, 64
2023/07/02 09:07:57.611, 87, 90, 63
2023/07/02 09:07:58.731, 86, 86, 61
2023/07/02 09:07:59.866, 89, 89, 66
2023/07/02 09:08:00.986, 91, 87, 66
2023/07/02 09:08:02.122, 85, 86, 62
2023/07/02 09:08:03.242, 87, 89, 63
2023/07/02 09:08:04.378, 85, 87, 58
2023/07/02 09:08:05.497, 82, 86, 62
2023/07/02 09:08:06.634, 89, 88, 58
2023/07/02 09:08:07.754, 86, 88, 57
2023/07/02 09:08:08.890, 86, 87, 66
2023/07/02 09:08:10.010, 84, 86, 61
2023/07/02 09:08:11.146, 86, 86, 61
2023/07/02 09:08:12.266, 86, 89, 62
2023/07/02 09:08:13.402, 86, 85, 63
2023/07/02 09:08:14.521, 84, 89, 60
2023/07/02 09:08:15.657, 86, 86, 64
2023/07/02 09:08:16.778, 84, 83, 64
2023/07/02 09:08:17.914, 86, 85, 65
2023/07/02 09:08:19.033, 88, 87, 58
2023/07/02 09:08:20.169, 84, 87, 58
2023/07/02 09:08:21.289, 82, 82, 58
2023/07/02 09:08:22.425, 85, 85, 61
2023/07/02 09:08:23.544, 86, 85, 59
2023/07/02 09:08:24.681, 87, 90, 63
2023/07/02 09:08:25.801, 89, 93, 60
2023/07/02 09:08:26.936, 86, 91, 63
2023/07/02 09:08:28.056, 85, 89, 63
2023/07/02 09:08:29.193, 81, 87, 61
2023/07/02 09:08:30.313, 85, 86, 61
2023/07/02 09:08:31.433, 89, 87, 62
2023/07/02 09:08:32.568, 87, 86, 62
2023/07/02 09:08:33.689, 83, 83, 66
2023/07/02 09:08:34.825, 84, 86, 59
2023/07/02 09:08:35.945, 86, 87, 58
2023/07/02 09:08:37.080, 86, 87, 62
2023/07/02 09:08:38.199, 85, 85, 59
2023/07/02 09:08:39.335, 87, 86, 62
2023/07/02 09:08:40.456, 83, 87, 61
2023/07/02 09:08:41.592, 85, 88, 65
2023/07/02 09:08:42.712, 87, 86, 66
2023/07/02 09:08:43.847, 84, 86, 62
2023/07/02 09:08:44.968, 85, 86, 59
2023/07/02 09:08:46.104, 81, 87, 61
2023/07/02 09:08:47.224, 83, 87, 61
2023/07/02 09:08:48.360, 84, 85, 59
2023/07/02 09:08:49.480, 86, 87, 61
2023/07/02 09:08:50.615, 88, 85, 58
2023/07/02 09:08:51.735, 86, 84, 59
2023/07/02 09:08:52.872, 84, 84, 61
2023/07/02 09:08:53.991, 85, 87, 62
2023/07/02 09:08:55.127, 85, 88, 64
2023/07/02 09:08:56.247, 85, 86, 62
2023/07/02 09:08:57.367, 87, 84, 62
2023/07/02 09:08:58.503, 82, 84, 60
2023/07/02 09:08:59.623, 84, 85, 65
2023/07/02 09:09:00.759, 84, 85, 65
2023/07/02 09:09:01.879, 85, 87, 59
2023/07/02 09:09:03.015, 86, 85, 62
2023/07/02 09:09:04.134, 85, 87, 61
2023/07/02 09:09:05.271, 82, 88, 63
2023/07/02 09:09:06.391, 86, 89, 59
2023/07/02 09:09:07.526, 86, 87, 64
2023/07/02 09:09:08.646, 87, 84, 59
2023/07/02 09:09:09.782, 86, 83, 62
2023/07/02 09:09:10.902, 83, 87, 61
2023/07/02 09:09:12.038, 87, 85, 63
2023/07/02 09:09:13.157, 84, 86, 63
2023/07/02 09:09:14.294, 84, 87, 64
2023/07/02 09:09:15.414, 87, 86, 65
2023/07/02 09:09:16.550, 86, 86, 59
2023/07/02 09:09:17.670, 80, 85, 65
2023/07/02 09:09:18.806, 86, 85, 63
2023/07/02 09:09:19.926, 85, 87, 61
2023/07/02 09:09:21.062, 88, 86, 62
2023/07/02 09:09:22.182, 86, 85, 61
2023/07/02 09:09:23.318, 84, 84, 60
2023/07/02 09:09:24.438, 83, 86, 61
2023/07/02 09:09:25.574, 83, 85, 62
2023/07/02 09:09:26.693, 87, 83, 64
2023/07/02 09:09:27.829, 85, 85, 59
2023/07/02 09:09:28.949, 85, 89, 61
2023/07/02 09:09:30.069, 86, 86, 63
2023/07/02 09:09:31.205, 85, 83, 60
2023/07/02 09:09:32.325, 87, 83, 60
2023/07/02 09:09:33.461, 85, 83, 61
2023/07/02 09:09:34.581, 85, 86, 63
2023/07/02 09:09:35.716, 85, 86, 58
2023/07/02 09:09:36.836, 83, 88, 64
2023/07/02 09:09:37.973, 85, 82, 61
2023/07/02 09:09:39.093, 83, 87, 61
2023/07/02 09:09:40.228, 85, 83, 60
2023/07/02 09:09:41.349, 85, 84, 61
2023/07/02 09:09:42.485, 86, 82, 55
2023/07/02 09:09:43.604, 85, 86, 63
2023/07/02 09:09:44.740, 86, 86, 59
2023/07/02 09:09:45.860, 85, 85, 62
2023/07/02 09:09:46.996, 85, 87, 62
2023/07/02 09:09:48.116, 79, 84, 60
2023/07/02 09:09:49.251, 82, 87, 59
2023/07/02 09:09:50.372, 85, 86, 64
2023/07/02 09:09:51.508, 83, 84, 62
2023/07/02 09:09:52.628, 84, 84, 61
2023/07/02 09:09:53.763, 85, 88, 59
2023/07/02 09:09:54.883, 85, 84, 59
2023/07/02 09:09:56.004, 85, 84, 59
2023/07/02 09:09:57.140, 84, 86, 60
2023/07/02 09:09:58.259, 87, 83, 61
2023/07/02 09:09:59.395, 84, 88, 60
2023/07/02 09:10:00.516, 85, 87, 61
2023/07/02 09:10:01.651, 81, 84, 61
2023/07/02 09:10:02.770, 85, 84, 59
2023/07/02 09:10:03.907, 83, 87, 60
2023/07/02 09:10:05.027, 85, 84, 59
2023/07/02 09:10:06.163, 85, 84, 60
2023/07/02 09:10:07.282, 88, 86, 61
2023/07/02 09:10:08.419, 86, 88, 62
2023/07/02 09:10:09.538, 82, 82, 63
2023/07/02 09:10:10.675, 88, 85, 62
2023/07/02 09:10:11.794, 85, 84, 62
2023/07/02 09:10:12.930, 83, 85, 56
2023/07/02 09:10:14.050, 82, 85, 61
2023/07/02 09:10:15.187, 84, 82, 58
2023/07/02 09:10:16.306, 85, 87, 59
2023/07/02 09:10:17.442, 87, 90, 64
2023/07/02 09:10:18.562, 85, 86, 59
2023/07/02 09:10:19.698, 86, 86, 59
2023/07/02 09:10:20.817, 85, 84, 59
2023/07/02 09:10:21.954, 84, 85, 59
2023/07/02 09:10:23.074, 83, 82, 60
2023/07/02 09:10:24.210, 84, 91, 59
2023/07/02 09:10:25.329, 88, 87, 63
2023/07/02 09:10:26.466, 86, 86, 60
2023/07/02 09:10:27.586, 86, 85, 61
2023/07/02 09:10:28.722, 85, 85, 58
2023/07/02 09:10:29.841, 82, 83, 62
2023/07/02 09:10:30.962, 82, 86, 63
2023/07/02 09:10:32.098, 88, 87, 58
2023/07/02 09:10:33.218, 86, 85, 60
2023/07/02 09:10:34.353, 86, 85, 67
2023/07/02 09:10:35.473, 83, 84, 60
2023/07/02 09:10:36.609, 85, 84, 55
2023/07/02 09:10:37.729, 84, 89, 64
2023/07/02 09:10:38.864, 83, 82, 64
2023/07/02 09:10:39.985, 86, 83, 62
2023/07/02 09:10:41.121, 87, 84, 63
2023/07/02 09:10:42.241, 88, 86, 62
2023/07/02 09:10:43.376, 84, 86, 79
2023/07/02 09:10:44.497, 86, 82, 60
2023/07/02 09:10:45.633, 81, 86, 60
2023/07/02 09:10:46.753, 85, 83, 64
2023/07/02 09:10:47.889, 83, 84, 57
2023/07/02 09:10:49.009, 83, 84, 57
2023/07/02 09:10:50.145, 83, 84, 62
2023/07/02 09:10:51.265, 85, 82, 61
2023/07/02 09:10:52.400, 83, 84, 58
2023/07/02 09:10:53.520, 81, 97, 64
2023/07/02 09:10:54.656, 82, 84, 60
2023/07/02 09:10:55.776, 83, 81, 60
2023/07/02 09:10:56.896, 85, 85, 61
2023/07/02 09:10:58.032, 83, 86, 60
2023/07/02 09:10:59.152, 83, 83, 58
2023/07/02 09:11:00.288, 86, 84, 57
2023/07/02 09:11:01.407, 84, 87, 63
2023/07/02 09:11:02.544, 84, 84, 60
2023/07/02 09:11:03.664, 82, 85, 60
2023/07/02 09:11:04.800, 84, 85, 62
2023/07/02 09:11:05.919, 84, 85, 57
2023/07/02 09:11:07.055, 81, 86, 59
2023/07/02 09:11:08.176, 82, 84, 62
2023/07/02 09:11:09.311, 87, 86, 62
2023/07/02 09:11:10.431, 85, 84, 61
2023/07/02 09:11:11.567, 93, 89, 60
2023/07/02 09:11:12.687, 83, 84, 54
2023/07/02 09:11:13.823, 85, 85, 58
2023/07/02 09:11:14.943, 83, 85, 62
2023/07/02 09:11:16.079, 87, 84, 64
2023/07/02 09:11:17.198, 85, 86, 64
2023/07/02 09:11:18.335, 85, 85, 65
2023/07/02 09:11:19.454, 85, 86, 56
2023/07/02 09:11:20.591, 82, 85, 59
2023/07/02 09:11:21.711, 85, 86, 62
2023/07/02 09:11:22.847, 88, 86, 59
2023/07/02 09:11:23.967, 85, 84, 61
2023/07/02 09:11:25.102, 85, 85, 62
2023/07/02 09:11:26.223, 81, 83, 56
2023/07/02 09:11:27.358, 83, 88, 63
2023/07/02 09:11:28.478, 85, 85, 62
2023/07/02 09:11:29.614, 85, 82, 63
2023/07/02 09:11:30.734, 87, 84, 59
2023/07/02 09:11:31.854, 83, 85, 61
2023/07/02 09:11:32.990, 83, 84, 61
2023/07/02 09:11:34.110, 87, 85, 62
2023/07/02 09:11:35.246, 85, 85, 58
2023/07/02 09:11:36.366, 85, 82, 63
2023/07/02 09:11:37.502, 84, 86, 59
2023/07/02 09:11:38.622, 82, 83, 60
2023/07/02 09:11:39.758, 82, 84, 59
2023/07/02 09:11:40.878, 83, 88, 63
2023/07/02 09:11:42.013, 85, 87, 59
2023/07/02 09:11:43.134, 81, 83, 64
2023/07/02 09:11:44.269, 83, 87, 64
2023/07/02 09:11:45.389, 84, 84, 56
2023/07/02 09:11:46.525, 83, 84, 57
2023/07/02 09:11:47.644, 82, 85, 62
2023/07/02 09:11:48.780, 86, 85, 52
2023/07/02 09:11:49.901, 85, 83, 57
2023/07/02 09:11:51.036, 84, 82, 62
2023/07/02 09:11:52.157, 84, 85, 60
2023/07/02 09:11:53.293, 84, 84, 58
2023/07/02 09:11:54.413, 85, 83, 66
2023/07/02 09:11:55.549, 84, 84, 59
2023/07/02 09:11:56.669, 84, 87, 59
2023/07/02 09:11:57.789, 84, 85, 63
2023/07/02 09:11:58.925, 86, 87, 58
2023/07/02 09:12:00.044, 82, 83, 63
2023/07/02 09:12:01.181, 84, 84, 63
2023/07/02 09:12:02.300, 85, 82, 60
2023/07/02 09:12:03.436, 82, 83, 59
2023/07/02 09:12:04.555, 85, 84, 57
2023/07/02 09:12:05.692, 83, 82, 62
2023/07/02 09:12:06.812, 83, 84, 62
2023/07/02 09:12:07.948, 86, 83, 59
2023/07/02 09:12:09.068, 87, 83, 60
2023/07/02 09:12:10.204, 84, 85, 58
2023/07/02 09:12:11.324, 86, 87, 62
2023/07/02 09:12:12.460, 83, 84, 60
2023/07/02 09:12:13.580, 82, 86, 59
2023/07/02 09:12:14.716, 85, 88, 61
2023/07/02 09:12:15.835, 86, 88, 61
2023/07/02 09:12:16.971, 91, 84, 60
2023/07/02 09:12:18.091, 95, 88, 64
2023/07/02 09:12:19.227, 97, 87, 60
2023/07/02 09:12:20.347, 97, 87, 63
2023/07/02 09:12:21.483, 92, 88, 65
2023/07/02 09:12:22.602, 86, 88, 65
2023/07/02 09:12:23.739, 85, 90, 67
2023/07/02 09:12:24.859, 88, 90, 64
2023/07/02 09:12:25.994, 86, 91, 62
2023/07/02 09:12:27.115, 93, 95, 61
2023/07/02 09:12:28.251, 88, 102, 63
2023/07/02 09:12:29.370, 92, 97, 62
2023/07/02 09:12:30.507, 89, 90, 64
2023/07/02 09:12:31.626, 93, 94, 66
2023/07/02 09:12:32.746, 90, 98, 63
2023/07/02 09:12:33.882, 89, 94, 64
2023/07/02 09:12:35.002, 89, 96, 64
2023/07/02 09:12:36.138, 88, 93, 69
2023/07/02 09:12:37.258, 89, 92, 66
2023/07/02 09:12:38.394, 91, 139, 68
2023/07/02 09:12:39.514, 92, 96, 65
2023/07/02 09:12:40.650, 90, 92, 68
2023/07/02 09:12:41.770, 92, 101, 67
2023/07/02 09:12:42.906, 94, 95, 66
2023/07/02 09:12:44.026, 91, 115, 76
2023/07/02 09:12:45.162, 91, 97, 70
2023/07/02 09:12:46.282, 92, 99, 67
2023/07/02 09:12:47.417, 92, 96, 70
2023/07/02 09:12:48.538, 92, 96, 65
2023/07/02 09:12:49.673, 90, 95, 66
2023/07/02 09:12:50.793, 95, 99, 62
2023/07/02 09:12:51.929, 91, 93, 61
2023/07/02 09:12:53.049, 88, 98, 69
2023/07/02 09:12:54.185, 94, 99, 66
2023/07/02 09:12:55.304, 91, 101, 64
2023/07/02 09:12:56.441, 101, 96, 66
2023/07/02 09:12:57.561, 92, 100, 70
2023/07/02 09:12:58.697, 92, 105, 71
2023/07/02 09:12:59.817, 96, 104, 68
2023/07/02 09:13:00.953, 93, 103, 66
2023/07/02 09:13:02.073, 92, 97, 67
2023/07/02 09:13:03.209, 91, 99, 72
2023/07/02 09:13:04.329, 94, 98, 67
2023/07/02 09:13:05.465, 93, 101, 65
2023/07/02 09:13:06.600, 94, 100, 67
2023/07/02 09:13:07.720, 90, 102, 68
2023/07/02 09:13:08.856, 95, 102, 68
2023/07/02 09:13:09.976, 95, 106, 68
2023/07/02 09:13:11.112, 99, 109, 64
2023/07/02 09:13:12.232, 100, 102, 70
2023/07/02 09:13:13.368, 97, 103, 67
2023/07/02 09:13:14.488, 102, 99, 67
2023/07/02 09:13:15.624, 97, 103, 68
2023/07/02 09:13:16.744, 99, 100, 64
2023/07/02 09:13:17.880, 99, 99, 71
2023/07/02 09:13:18.000, 97, 102, 70
2023/07/02 09:13:20.135, 97, 113, 69
2023/07/02 09:13:21.271, 100, 106, 73
2023/07/02 09:13:22.392, 99, 97, 72
2023/07/02 09:13:23.528, 99, 102, 74
2023/07/02 09:13:24.647, 99, 102, 66
2023/07/02 09:13:25.783, 98, 99, 67
2023/07/02 09:13:26.903, 108, 105, 68
2023/07/02 09:13:28.039, 103, 107, 70
2023/07/02 09:13:29.159, 99, 104, 75
2023/07/02 09:13:30.295, 102, 105, 68
2023/07/02 09:13:31.414, 99, 104, 68
2023/07/02 09:13:32.551, 99, 108, 68
2023/07/02 09:13:33.671, 99, 104, 64
2023/07/02 09:13:34.807, 106, 106, 92
2023/07/02 09:13:35.943, 100, 101, 69
2023/07/02 09:13:37.063, 101, 107, 69
2023/07/02 09:13:38.199, 101, 107, 78
2023/07/02 09:13:39.318, 104, 106, 69
2023/07/02 09:13:40.454, 103, 103, 72
2023/07/02 09:13:41.574, 102, 104, 73
2023/07/02 09:13:42.710, 101, 107, 77
2023/07/02 09:13:43.846, 101, 110, 70
2023/07/02 09:13:44.966, 101, 107, 76
2023/07/02 09:13:46.102, 101, 102, 70
2023/07/02 09:13:47.222, 101, 104, 70
2023/07/02 09:13:48.358, 102, 108, 74
2023/07/02 09:13:49.493, 99, 110, 71
2023/07/02 09:13:50.614, 103, 105, 70
2023/07/02 09:13:51.750, 101, 104, 69
2023/07/02 09:13:52.869, 104, 106, 70
2023/07/02 09:13:54.006, 99, 105, 76
2023/07/02 09:13:55.126, 100, 109, 70
2023/07/02 09:13:56.261, 100, 105, 70
2023/07/02 09:13:57.398, 103, 128, 70
2023/07/02 09:13:58.517, 100, 111, 75
2023/07/02 09:13:59.654, 102, 110, 71
2023/07/02 09:14:00.773, 102, 108, 72
2023/07/02 09:14:01.909, 102, 108, 70
2023/07/02 09:14:03.029, 100, 111, 70
2023/07/02 09:14:04.165, 100, 106, 126
2023/07/02 09:14:05.300, 106, 106, 68
2023/07/02 09:14:06.421, 103, 105, 71
2023/07/02 09:14:07.557, 105, 105, 73
2023/07/02 09:14:08.677, 104, 105, 73
2023/07/02 09:14:09.813, 101, 108, 100
2023/07/02 09:14:10.948, 100, 109, 75
2023/07/02 09:14:12.068, 100, 109, 73
2023/07/02 09:14:13.205, 103, 109, 72
2023/07/02 09:14:14.324, 102, 108, 72
2023/07/02 09:14:15.460, 107, 116, 69
2023/07/02 09:14:16.596, 104, 107, 71
2023/07/02 09:14:17.716, 101, 117, 70
2023/07/02 09:14:18.852, 103, 110, 74
2023/07/02 09:14:19.972, 103, 123, 72
2023/07/02 09:14:21.108, 101, 104, 69